ImprimablePdf
Antwerp, 25/04/2010, BEL - DVV Antwerp Marathon & 10 Miles
Liste des rapports > 10 Miles - Classement + Video
Recherche: Page: [1]
61 Entrées
 
Les réclamations ne sont plus acceptées, les résultats sont considérés comme définitifs.
RangNrNomAgeIOCTempsTkmMoy.ScrLocalité
1.483VAN ASSCHE Petrus66BEL1:08:244:15 14.12404BREENDONK(PUURS)
2.13379VERSTEVEN Rene65BEL1:10:584:25 13.61626BONHEIDEN
3.12648BOECKX Jan65BEL1:11:124:26 13.56655MALLE
4.1476GEERINCKX Orwig65BEL1:19:324:57 12.142167STEKENE
5.12811DE RIDDER Charles65BEL1:21:175:03 11.882647ESSEN
6.12813NEYS Jan69BEL1:21:185:04 11.882649ESSEN
7.360FREYSEN Fred65BEL1:21:555:06 11.792852HALLE-ZOERSEL
8.2160MOERKAMP Jack68BEL1:24:505:17 11.393689MALLE
9.7396AERTS Jean-Pierre65BEL1:25:225:19 11.313885'S GRAVENWEZEL
10.10303VALENTEYN Karel66BEL1:25:445:20 11.264006ANTWERPEN 1
11.3711HOLMGREN Frank66GER1:27:435:27 11.014743CASTROP-RAUXEL
12.19164VAN MOLLE Aime66BEL1:29:045:32 10.845247BAZEL
13.5949DE BELEYR Walter67BEL1:29:125:33 10.835306SCHOTEN
14.6406WOUTERS Jef66BEL1:29:225:34 10.815366STABROEK
15.4973VAN DEN BOSSCHE Willy65BEL1:29:565:36 10.745584NIEUWKERKEN-WAAS
16.5233LAUWERS Herman65BEL1:30:545:39 10.635950OUD-TURNHOUT
17.11185MAERTENS Toon65BEL1:30:555:39 10.625965WAASMUNSTER
18.5533VAN CAPPELLEN Roger68BEL1:31:535:43 10.516348VILVOORDE
19.12621GEERTS Pol66BEL1:32:015:43 10.506398MEERLE
20.12879BAUDEWYN Glenn65BEL1:33:335:49 10.327000HOBOKEN (ANTWERPEN)
21.16812VAN SEVEREN Charles67BEL1:34:115:52 10.257295
22.1137VAN STAEY Leo67BEL1:34:135:52 10.257310SCHOTEN
23.13594CROLLET Jos68BEL1:35:505:58 10.087964RANST
24.15451VAN DEN EEDE Leon67BEL1:36:386:01 9.998295
25.13502CASIER Jean-Pierre65BEL1:36:476:01 9.988358WIJNEGEM
26.4082WOUTERS Jozef66BEL1:37:326:04 9.908652ANTWERPEN-DEURNE
27.16533MOERMAN Bram67BEL1:38:426:08 9.799112
28.1357CLAEYS BOUUAERT Jean-Pierre65BEL1:38:586:09 9.769237WAASMUNSTER
29.14915FRANSEN Johan65BEL1:39:426:12 9.699504
30.1161VAN DAMME Andre68BEL1:39:496:13 9.689538LOKEREN
31.11027PEETERS Leo65BEL1:39:546:13 9.679568BRECHT
32.902VAN ROEYEN Jozef69BEL1:40:006:13 9.669597BEVEREN-WAAS
33.1720PYCK Jan69BEL1:41:206:18 9.5310010BRASSCHAAT
34.3977SYMOENS Gustaaf69BEL1:41:276:19 9.5210052STEKENE
35.4060CLAES Jef65BEL1:42:046:21 9.4610284MEISE
36.14818LEWIJZE Hendrik68BEL1:42:226:22 9.4310367
37.1814OP DE BEECK Joseph65BEL1:42:236:22 9.4310369HEIST OP DEN BERG
38.10428GOOSSENS Jozef66BEL1:42:456:24 9.4010474EKEREN (ANTWERPEN)
39.5160LITZROTH Henri69BEL1:43:106:25 9.3610603BORGERHOUT
40.6737BAEVEGEMS Willy69BEL1:43:466:27 9.3110789EREMBODEGEM
41.9370ROGGHE Hugo67BEL1:44:436:31 9.2211097MOL
42.2939VAN DEN BROECK Georges67BEL1:45:176:33 9.1711233BORGERHOUT (ANTWERPEN)
43.13777VOLCKAERTS Julien67BEL1:46:086:36 9.1011462KRUIBEKE
44.3111THERRY Michiel66BEL1:47:046:40 9.0211676IEPER
45.1470HOFMAN Aster65BEL1:47:236:41 8.9911748STEKENE
46.8149ROOSENBOOM Constant69BEL1:47:256:41 8.9911760KAPELLEN (ANTW.)
47.9430VAN KAAM Peter66NLD1:47:416:42 8.9711846VELDHOVEN
48.10604DONVIL Marcel67BEL1:48:386:45 8.8912111KAPELLEN
49.11565HERBOTS Jozef69BEL1:49:546:50 8.7912408GENK
50.16472DE LA RAMBELLE Maurits69BEL1:52:026:58 8.6212838
51.13292VISKENS Emile69BEL1:52:477:01 8.5612995MERKSEM (ANTWERPEN)
52.9409GHYS Guy65BEL1:54:067:06 8.4613212DEURNE (ANTWERPEN)
53.11648MICHIELSEN Georges68BEL1:54:117:06 8.4613234ZOERSEL
54.5866VAN DE PEER Roger68BEL1:58:067:21 8.1813767KAPELLEN (ANTW.)
55.7527VAN SCHUYLENBERGH Ronny65BEL1:58:337:22 8.1513814OOSTENDE
56.9535ETIENNE Jean-Pierre65BEL1:59:177:25 8.1013889KOKSIJDE
57.15385ELAESSENS Lode68BEL1:59:507:27 8.0613960
58.7052BORGERMANS Lambert66BEL2:00:567:31 7.9914029ANTWERPEN 6
59.16377A KARTAL Ahmet66BEL2:03:057:39 7.8514157
60.16469WINNE Jose65BEL2:19:178:40 6.9314583
61.19060D'HOOGHE Maurice66BEL2:29:599:20 6.4414608BEVEREN-WAAS
DNF: abandon; DSQ: disqualifié; Vitesse en km/h
ChronoRace - Electronic Timing - www.chronorace.be